Погода в Заозерном

Украина / Херсонская область     46°36′00″N   33°57′30″E
темп.,
°C
ветер,
м/с
пор.,
м/с
влажн.,
%
обл.,
%
осадки,
мм/ч
давл.,
гПа
погр.,
м
18 мая, вт
вт1800:00+15ююз5985100 0.0 1007423
03:00+15ююз488899 0.0 1006371
06:00+13ю389511 0.0 1007278
09:00+18ю686923 0.0 1007725
12:00+19юз7964100 1.1 10061120
15:00+17ююз4118199 1.7 1006725
18:00+17юз81371100 0.2 1005768
21:00+14ююз5117790 0.2 1005494
19 мая, ср
ср1900:00+13ююз6118764 0.0 1005437
03:00+12ююз410915 0.0 1004231
06:00+12ююз498819 0.0 1005270
09:00+16юз81070100 0.3 10051129
12:00+14юз81289100 1.4 1006943
15:00+17зюз9127489 1.8 10061267
18:00+17зюз8117136 0.7 10081325
21:00+14юз612834 0.8 1010373
20 мая, чт
чт2000:00+13зюз614832 0.0 1011410
03:00+11юз49945 0.0 1011178
06:00+12юз359335 0.0 1011101
09:00+17юз3565100 0.0 1012600
12:00+21ююз344894 0.0 10111318
15:00+23ююв45396 0.0 10101671
18:00+21вюв56505 0.0 1010862
21:00+16в51072100 0.0 1010233
21 мая, пт
пт2100:00+14в41077100 0.0 1010217
03:00+13в349196 0.0 100965
06:00+14всв1293100 0.0 101036
09:00+18в1171100 0.0 1010494
12:00+23ю2251100 0.0 1010967
15:00+25ююз2245100 0.0 10091090
18:00+23з3458100 0.0 1009143
21:00+20ссз346697 0.0 100953
22 мая, сб
сб2200:00+17ссв3478100 0.0 100843
03:00+17с3582100 0.0 100888
06:00+16с612935 0.0 1007274
09:00+22ссв79715 0.0 1008618
12:00+27св6755100 0.0 10081251
15:00+28ссв5551100 0.0 10071677
18:00+27с675898 0.0 1008957
21:00+21ссв3778100 0.0 1009113